Location: Kershaw
(34.5481°N, 80.5823°W)
Time: 14:19:33
(UTC+00:00)

Transit 4A - Pass Details

Date: 11 October 2022
Orbit: 871 x 972 km, 66.8° (Epoch: 29 November)

Event Time Altitude Azimuth Distance (km) Brightness Sun altitude
Rises 10:11:15 0° 339° (NNW) 3,476 10.7 -15.9°
Reaches altitude 10° 10:13:51 10° 345° (NNW) 2,528 10.0 -15.4°
Maximum altitude 10:19:27 47° 59° (ENE) 1,138 8.8 -14.2°
Drops below altitude 10° 10:25:02 10° 133° (SE) 2,517 10.9 -13.1°
Sets 10:27:36 0° 139° (SE) 3,459 11.5 -12.5°
